QPF
0.00 0.00 0.00 0.00 0.00 0.00 0.00 0.00 0.00 0.00 0.00 0.00 0.00 0.00 0.01 0.00 0.00 0.00 0.00 0.01 0.02 0.03 0.07 0.09 0.08 0.05 0.04 0.02 0.03 0.02 0.02 0.01 0.00 0.00 0.00 0.00 0.00 0.01 0.00 0.00 0.00 0.02 0.02
0.00 0.00 0.00 0.00 0.00 0.00 0.00 0.00 0.00 0.01 0.00 0.00 0.00 0.01 0.01 0.00 0.00 0.00 0.00 0.00 0.01 0.03 0.03 0.03 0.05 0.06 0.04 0.01 0.00 0.00 0.00 0.00 0.00 0.00 0.00 0.00 0.00 0.00 0.01 0.01 0.00 0.01 0.01
0.00 0.00 0.00 0.00 0.00 0.00 0.00 0.00 0.00 0.01 0.00 0.00 0.01 0.01 0.01 0.00 0.00 0.00 0.00 0.00 0.00 0.02 0.02 0.03 0.02 0.01 0.01 0.00 0.01 0.01 0.01 0.02 0.02 0.01 0.00 0.00 0.00 0.00 0.00 0.01 0.00 0.01 0.00
0.00 0.00 0.00 0.00 0.00 0.00 0.00 0.00 0.00 0.00 0.00 0.00 0.00 0.01 0.01 0.01 0.00 0.00 0.00 0.00 0.00 0.00 0.00 0.01 0.00 0.00 0.00 0.00 0.00 0.00 0.01 0.02 0.02 0.02 0.01 0.00 0.00 0.00 0.01 0.02 0.02 0.01 0.00
0.00 0.00 0.00 0.00 0.00 0.00 0.00 0.00 0.00 0.00 0.00 0.00 0.00 0.01 0.01 0.01 0.00 0.00 0.00 0.00 0.00 0.00 0.00 0.00 0.00 0.00 0.00 0.00 0.00 0.00 0.00 0.00 0.01 0.02 0.02 0.01 0.01 0.02 0.03 0.02 0.03 0.03 0.02
0.00 0.00 0.00 0.00 0.00 0.00 0.00 0.00 0.00 0.00 0.00 0.00 0.00 0.00 0.00 0.01 0.01 0.00 0.00 0.00 0.00 0.00 0.00 0.00 0.00 0.00 0.00 0.00 0.00 0.00 0.00 0.00 0.00 0.00 0.00 0.00 0.01 0.02 0.03 0.03 0.02 0.01 0.01
0.00 0.00 0.00 0.00 0.00 0.00 0.00 0.00 0.00 0.00 0.00 0.00 0.00 0.00 0.00 0.00 0.01 0.00 0.00 0.00 0.00 0.00 0.00 0.00 0.00 0.00 0.00 0.00 0.00 0.00 0.00 0.00 0.00 0.00 0.00 0.00 0.00 0.00 0.00 0.01 0.01 0.01 0.00
0.00 0.00 0.00 0.00 0.00 0.00 0.00 0.00 0.00 0.00 0.00 0.00 0.00 0.00 0.00 0.00 0.00 0.00 0.00 0.00 0.00 0.00 0.00 0.00 0.00 0.00 0.00 0.00 0.00 0.00 0.00 0.00 0.00 0.00 0.00 0.00 0.00 0.00 0.00 0.00 0.00 0.00 0.00
0.00 0.00 0.00 0.00 0.00 0.00 0.00 0.00 0.00 0.00 0.00 0.00 0.00 0.00 0.00 0.00 0.00 0.00 0.00 0.00 0.00 0.00 0.00 0.00 0.00 0.00 0.00 0.00 0.00 0.00 0.00 0.00 0.00 0.00 0.00 0.00 0.00 0.00 0.00 0.00 0.00 0.00 0.00
0.00 0.00 0.00 0.00 0.00 0.00 0.00 0.00 0.00 0.00 0.00 0.00 0.00 0.00 0.00 0.00 0.00 0.00 0.00 0.00 0.00 0.00 0.00 0.00 0.00 0.00 0.00 0.00 0.00 0.00 0.00 0.00 0.00 0.00 0.00 0.00 0.00 0.00 0.00 0.00 0.00 0.00 0.00
0.00 0.00 0.00 0.00 0.00 0.00 0.00 0.00 0.00 0.00 0.00 0.00 0.00 0.00 0.00 0.00 0.00 0.00 0.00 0.00 0.00 0.00 0.00 0.00 0.00 0.00 0.00 0.00 0.00 0.00 0.00 0.00 0.00 0.00 0.00 0.00 0.00 0.00 0.00 0.00 0.00 0.00 0.00
0.00 0.00 0.00 0.00 0.00 0.00 0.00 0.00 0.00 0.00 0.00 0.00 0.00 0.00 0.00 0.00 0.00 0.00 0.00 0.00 0.00 0.00 0.00 0.00 0.00 0.00 0.00 0.00 0.00 0.00 0.00 0.00 0.00 0.00 0.00 0.00 0.00 0.00 0.00 0.00 0.00 0.00 0.00
0.00 0.00 0.00 0.00 0.00 0.00 0.00 0.00 0.00 0.00 0.00 0.00 0.00 0.00 0.00 0.00 0.00 0.00 0.00 0.00 0.00 0.00 0.00 0.00 0.00 0.00 0.00 0.00 0.00 0.00 0.00 0.00 0.00 0.00 0.00 0.00 0.00 0.00 0.00 0.00 0.00 0.00 0.00
0.00 0.00 0.00 0.00 0.00 0.00 0.00 0.00 0.00 0.00 0.00 0.00 0.00 0.00 0.00 0.00 0.00 0.00 0.00 0.00 0.00 0.00 0.00 0.00 0.00 0.00 0.00 0.00 0.00 0.00 0.00 0.00 0.00 0.00 0.00 0.00 0.00 0.00 0.00 0.00 0.00 0.00 0.00
0.00 0.00 0.00 0.00 0.00 0.00 0.00 0.00 0.00 0.00 0.00 0.00 0.00 0.00 0.00 0.00 0.00 0.00 0.00 0.00 0.00 0.00 0.00 0.00 0.00 0.00 0.00 0.00 0.00 0.00 0.00 0.00 0.00 0.00 0.00 0.00 0.00 0.00 0.00 0.00 0.00 0.00 0.00
0.00 0.00 0.00 0.00 0.00 0.00 0.00 0.00 0.00 0.00 0.00 0.00 0.00 0.00 0.00 0.00 0.00 0.00 0.00 0.00 0.00 0.00 0.00 0.00 0.00 0.00 0.00 0.00 0.00 0.00 0.00 0.00 0.00 0.00 0.00 0.00 0.00 0.00 0.00 0.00 0.00 0.00 0.00
0.00 0.00 0.00 0.00 0.00 0.00 0.00 0.00 0.00 0.00 0.00 0.00 0.00 0.00 0.00 0.00 0.00 0.00 0.00 0.00 0.00 0.00 0.00 0.00 0.00 0.00 0.00 0.00 0.00 0.00 0.00 0.00 0.00 0.00 0.00 0.00 0.00 0.00 0.00 0.00 0.00 0.00 0.00
0.00 0.00 0.00 0.00 0.00 0.00 0.00 0.00 0.00 0.00 0.00 0.00 0.00 0.00 0.00 0.00 0.00 0.00 0.00 0.00 0.00 0.00 0.00 0.00 0.00 0.00 0.00 0.00 0.00 0.00 0.00 0.00 0.00 0.00 0.00 0.00 0.00 0.00 0.00 0.00 0.00 0.00 0.00
0.00 0.00 0.00 0.00 0.00 0.00 0.00 0.00 0.00 0.00 0.00 0.00 0.00 0.00 0.00 0.00 0.00 0.00 0.00 0.00 0.00 0.00 0.00 0.00 0.00 0.00 0.00 0.00 0.00 0.00 0.00 0.00 0.00 0.00 0.00 0.00 0.00 0.00 0.00 0.00 0.00 0.00 0.00
0.00 0.00 0.00 0.00 0.00 0.00 0.00 0.00 0.00 0.00 0.00 0.00 0.00 0.00 0.00 0.00 0.00 0.00 0.00 0.00 0.00 0.00 0.00 0.00 0.00 0.00 0.00 0.00 0.00 0.00 0.00 0.00 0.00 0.00 0.00 0.00 0.00 0.00 0.00 0.00 0.00 0.00 0.00
0.00 0.00 0.00 0.00 0.00 0.00 0.00 0.00 0.00 0.00 0.00 0.00 0.00 0.00 0.00 0.00 0.00 0.00 0.00 0.00 0.00 0.00 0.00 0.00 0.00 0.00 0.00 0.00 0.00 0.00 0.00 0.00 0.00 0.00 0.00 0.00 0.00 0.00 0.00 0.00 0.00 0.00 0.00
0.00 0.00 0.00 0.00 0.00 0.00 0.00 0.00 0.00 0.00 0.00 0.00 0.00 0.00 0.00 0.00 0.00 0.00 0.00 0.00 0.00 0.00 0.00 0.00 0.00 0.00 0.00 0.00 0.00 0.00 0.00 0.00 0.00 0.00 0.00 0.00 0.00 0.00 0.00 0.00 0.00 0.00 0.00
0.00 0.00 0.00 0.00 0.00 0.00 0.00 0.00 0.00 0.00 0.00 0.00 0.00 0.00 0.00 0.00 0.00 0.00 0.00 0.00 0.00 0.00 0.00 0.00 0.00 0.00 0.00 0.00 0.00 0.00 0.00 0.00 0.00 0.00 0.00 0.00 0.00 0.00 0.00 0.00 0.00 0.00 0.00
0.00 0.00 0.00 0.00 0.00 0.00 0.00 0.00 0.00 0.00 0.00 0.00 0.00 0.00 0.00 0.00 0.00 0.00 0.00 0.00 0.00 0.00 0.00 0.00 0.00 0.00 0.00 0.00 0.00 0.00 0.00 0.00 0.00 0.00 0.00 0.00 0.00 0.00 0.00 0.00 0.00 0.00 0.00
0.00 0.00 0.00 0.00 0.00 0.00 0.00 0.00 0.00 0.00 0.00 0.00 0.00 0.00 0.00 0.00 0.00 0.00 0.00 0.00 0.00 0.00 0.00 0.00 0.00 0.00 0.00 0.00 0.00 0.00 0.00 0.00 0.00 0.00 0.00 0.00 0.00 0.00 0.00 0.00 0.00 0.00 0.00
0.00 0.00 0.00 0.00 0.00 0.00 0.00 0.00 0.00 0.00 0.00 0.00 0.00 0.00 0.00 0.00 0.00 0.00 0.00 0.00 0.00 0.00 0.00 0.00 0.00 0.00 0.00 0.00 0.00 0.00 0.00 0.00 0.00 0.00 0.00 0.00 0.00 0.00 0.00 0.00 0.00 0.00 0.00
MSLP
1022.47 1021.93 1021.47 1021.10 1020.67 1020.12 1019.55 1018.76 1018.06 1017.12 1016.11 1015.09 1014.03 1012.81 1011.60 1010.69 1010.04 1008.75 1007.04 1005.08 1003.16 1001.22 999.17 998.48 998.30 998.64 999.38 999.92 1000.58 1000.73 1001.47 1001.87 1002.24 1002.40 1002.57 1002.84 1003.00 1003.02 1003.57 1003.99 1004.00 1004.87 1005.40
1022.67 1022.36 1021.79 1021.30 1020.72 1019.96 1019.32 1018.82 1018.21 1017.36 1016.35 1015.32 1014.11 1012.97 1011.86 1011.24 1010.35 1009.14 1007.30 1005.48 1003.62 1001.81 999.45 997.93 997.97 998.43 999.03 999.55 999.76 1000.06 1000.44 1000.92 1001.56 1002.10 1002.26 1002.55 1002.59 1002.40 1002.87 1003.39 1003.62 1003.93 1004.53
1022.76 1022.46 1021.94 1021.48 1020.82 1020.10 1019.42 1018.78 1018.20 1017.43 1016.57 1015.45 1014.38 1013.26 1012.28 1011.64 1010.70 1009.56 1008.01 1006.08 1004.26 1003.06 1000.22 999.54 998.59 998.45 999.07 999.38 999.82 1000.17 1000.57 1000.73 1001.20 1001.64 1001.74 1002.04 1002.00 1002.08 1002.77 1003.12 1003.39 1003.59 1003.74
1022.89 1022.47 1022.05 1021.42 1020.76 1020.11 1019.50 1018.88 1018.14 1017.34 1016.49 1015.64 1014.75 1013.72 1012.91 1012.11 1011.28 1010.04 1008.82 1007.02 1005.47 1003.70 1002.49 1001.80 1000.61 1000.55 1000.59 1000.40 1000.63 1000.71 1000.53 1000.39 1000.72 1001.27 1001.33 1001.75 1001.67 1002.10 1002.34 1002.65 1003.08 1003.06 1003.28
1023.17 1022.77 1022.22 1021.56 1020.90 1020.18 1019.48 1018.86 1018.21 1017.41 1016.59 1015.80 1015.07 1014.27 1013.48 1012.42 1011.67 1010.65 1009.34 1008.06 1006.37 1004.69 1004.21 1003.95 1002.43 1002.81 1002.54 1002.35 1002.09 1001.70 1001.01 1001.09 1000.98 1001.12 1001.22 1001.49 1001.78 1002.33 1002.14 1002.00 1002.35 1002.69 1002.95
1023.45 1023.01 1022.39 1021.73 1021.03 1020.29 1019.56 1018.89 1018.15 1017.39 1016.75 1016.12 1015.32 1014.68 1014.02 1013.17 1012.17 1010.94 1009.81 1008.69 1007.48 1006.59 1005.26 1004.47 1004.02 1004.49 1003.93 1003.53 1003.45 1002.47 1002.24 1001.85 1001.82 1001.87 1001.63 1001.59 1001.77 1001.92 1001.78 1001.75 1002.30 1002.94 1003.13
1023.63 1023.15 1022.52 1021.90 1021.16 1020.43 1019.71 1019.01 1018.24 1017.51 1016.83 1016.23 1015.62 1015.00 1014.34 1013.51 1012.53 1011.46 1010.49 1009.59 1008.37 1007.49 1006.70 1005.63 1004.86 1004.77 1004.40 1004.54 1003.96 1003.37 1002.82 1003.15 1003.00 1002.83 1002.76 1002.62 1002.43 1002.20 1002.18 1002.00 1002.20 1002.28 1002.33
1023.80 1023.31 1022.69 1022.14 1021.35 1020.59 1019.85 1019.25 1018.53 1017.72 1017.04 1016.47 1015.77 1015.22 1014.62 1013.90 1013.02 1011.94 1010.90 1010.11 1009.25 1008.71 1007.60 1006.67 1006.16 1006.65 1004.96 1004.65 1004.76 1003.69 1003.49 1003.50 1003.59 1003.56 1003.35 1003.25 1003.05 1003.03 1002.98 1002.76 1002.51 1002.20 1002.46
1024.06 1023.53 1022.94 1022.29 1021.58 1020.83 1020.15 1019.54 1018.74 1017.94 1017.20 1016.66 1016.03 1015.41 1014.79 1014.18 1013.35 1012.33 1011.35 1010.88 1010.16 1009.16 1008.02 1007.06 1006.77 1005.84 1006.10 1004.17 1003.73 1004.12 1003.57 1003.88 1004.53 1003.93 1003.62 1003.36 1002.97 1002.97 1002.94 1002.79 1002.47 1002.31 1002.40
1024.34 1023.72 1023.18 1022.48 1021.94 1021.16 1020.48 1019.72 1019.02 1018.27 1017.39 1016.78 1016.20 1015.71 1015.11 1014.48 1013.70 1012.60 1011.70 1011.30 1010.38 1009.40 1009.04 1008.39 1006.90 1006.74 1004.11 1005.44 1005.08 1004.33 1004.48 1004.34 1004.50 1003.61 1003.08 1002.81 1002.82 1002.91 1002.53 1002.48 1002.22 1002.09 1002.04
1024.52 1023.95 1023.27 1022.73 1022.19 1021.43 1020.73 1019.97 1019.20 1018.43 1017.62 1016.91 1016.42 1016.04 1015.34 1014.63 1014.05 1013.35 1012.50 1011.62 1011.01 1010.24 1008.99 1007.79 1006.88 1006.19 1004.44 1005.83 1005.70 1005.57 1005.94 1005.26 1004.69 1003.80 1003.21 1003.03 1002.65 1002.56 1002.34 1002.25 1001.93 1001.77 1001.48
1024.75 1024.16 1023.60 1022.98 1022.38 1021.70 1020.98 1020.21 1019.50 1018.76 1018.12 1017.35 1016.79 1016.48 1015.88 1014.95 1013.95 1012.99 1012.20 1011.60 1011.20 1010.79 1010.22 1009.58 1008.78 1007.76 1007.59 1008.04 1007.22 1006.10 1005.95 1005.09 1004.55 1004.19 1003.94 1003.39 1003.22 1003.25 1002.62 1002.28 1002.09 1001.50 1000.99
1024.93 1024.49 1023.90 1023.25 1022.59 1021.91 1021.26 1020.61 1019.87 1019.14 1018.48 1017.81 1017.46 1017.02 1016.37 1015.64 1014.89 1013.99 1013.37 1013.15 1012.45 1011.66 1010.81 1009.97 1009.07 1008.42 1008.37 1007.91 1007.52 1006.92 1006.16 1005.58 1005.36 1004.87 1004.53 1004.15 1004.13 1003.46 1002.78 1002.08 1001.79 1001.07 1000.49
1025.23 1024.85 1024.30 1023.69 1022.84 1022.31 1021.69 1021.03 1020.44 1019.66 1018.84 1018.16 1017.92 1017.37 1016.70 1015.99 1015.47 1014.82 1014.06 1013.10 1012.15 1011.72 1011.44 1011.08 1010.40 1010.00 1009.28 1008.27 1007.45 1007.31 1006.58 1006.55 1006.39 1005.96 1005.24 1004.43 1003.88 1003.43 1002.96 1002.29 1001.85 1001.17 1000.64
1025.45 1025.03 1024.54 1023.97 1023.34 1022.76 1022.01 1021.47 1020.82 1020.12 1019.35 1018.66 1018.28 1017.88 1017.06 1016.29 1015.61 1014.93 1014.36 1013.89 1013.20 1012.98 1012.45 1011.83 1011.33 1010.63 1009.87 1009.49 1008.89 1007.98 1007.41 1007.06 1006.66 1006.15 1005.41 1004.77 1004.61 1004.00 1003.23 1002.66 1001.92 1001.40 1000.96
1025.85 1025.40 1024.90 1024.30 1023.63 1022.96 1022.40 1021.75 1020.83 1020.34 1019.66 1019.15 1018.66 1018.14 1017.47 1016.85 1016.10 1015.57 1015.09 1014.82 1014.45 1013.97 1013.23 1012.81 1012.41 1011.91 1011.40 1010.48 1009.72 1009.13 1008.53 1007.89 1007.10 1006.14 1005.77 1005.57 1005.23 1004.71 1003.83 1002.99 1002.29 1001.37 1000.96
1026.45 1025.90 1025.26 1024.57 1023.96 1023.28 1022.69 1022.15 1021.45 1020.67 1020.13 1019.62 1019.08 1018.52 1017.89 1017.16 1016.48 1015.91 1015.54 1015.14 1014.66 1014.15 1013.95 1013.80 1013.40 1012.79 1012.18 1011.49 1010.76 1010.05 1009.38 1008.48 1007.53 1007.19 1006.90 1006.13 1005.58 1004.86 1004.15 1003.31 1002.53 1001.67 1001.08
1026.75 1026.13 1025.56 1024.98 1024.34 1023.66 1023.09 1022.48 1021.82 1021.61 1021.33 1020.47 1019.63 1019.11 1018.61 1017.87 1017.30 1016.84 1016.28 1015.59 1014.96 1014.67 1014.70 1014.41 1013.88 1013.36 1012.77 1012.08 1011.43 1010.83 1009.87 1008.87 1008.33 1007.71 1007.02 1006.18 1005.58 1005.03 1004.19 1003.41 1002.69 1002.23 1001.51
1027.01 1026.35 1025.79 1025.21 1024.55 1023.94 1023.35 1022.71 1022.16 1021.85 1021.59 1021.31 1020.76 1019.92 1019.43 1018.82 1018.28 1017.86 1017.50 1017.35 1016.99 1016.35 1015.81 1015.24 1014.65 1013.91 1013.24 1012.52 1011.81 1011.09 1010.31 1009.50 1008.69 1007.98 1006.98 1006.10 1005.48 1004.67 1003.87 1003.44 1002.89 1002.17 1001.55
1027.04 1026.49 1025.98 1025.47 1024.87 1024.31 1023.75 1023.19 1022.63 1022.38 1022.12 1021.87 1021.45 1021.10 1020.32 1019.70 1019.23 1018.86 1018.38 1017.97 1017.57 1017.16 1016.78 1016.28 1015.60 1014.91 1013.97 1013.10 1012.16 1011.04 1009.89 1009.04 1008.20 1007.49 1006.67 1005.89 1005.35 1004.59 1003.75 1003.07 1002.46 1001.68 1001.12
1027.21 1026.75 1026.28 1025.79 1025.32 1024.87 1024.33 1023.75 1023.23 1022.80 1022.61 1022.33 1022.08 1021.44 1021.02 1020.96 1020.55 1019.95 1019.42 1018.78 1018.25 1017.68 1017.08 1016.43 1015.74 1015.06 1014.33 1013.44 1012.46 1011.48 1010.61 1009.62 1008.62 1007.75 1006.95 1006.20 1005.49 1004.43 1003.65 1002.81 1001.97 1001.22 1000.50
1027.55 1027.22 1026.70 1026.32 1025.81 1025.38 1024.90 1024.28 1023.85 1023.42 1023.12 1022.79 1022.38 1021.76 1021.30 1021.02 1020.76 1020.35 1019.87 1019.40 1018.86 1018.30 1017.71 1017.11 1016.33 1015.48 1014.58 1013.69 1012.65 1011.67 1010.78 1009.96 1009.16 1008.27 1007.42 1006.60 1005.64 1004.63 1003.49 1002.45 1001.48 1000.76 1000.03
1027.93 1027.72 1027.29 1026.78 1026.41 1025.91 1025.38 1024.83 1024.43 1024.02 1023.72 1023.38 1022.91 1022.34 1021.75 1021.31 1020.92 1020.48 1020.01 1019.53 1019.05 1018.55 1017.98 1017.36 1016.66 1015.84 1015.04 1014.36 1013.47 1012.48 1011.45 1010.35 1009.43 1008.48 1007.43 1006.44 1005.55 1004.51 1003.39 1002.30 1001.37 1000.76 1000.16
1028.38 1028.15 1027.83 1027.45 1026.98 1026.54 1026.07 1025.53 1025.06 1024.65 1024.27 1023.92 1023.61 1022.93 1022.36 1021.79 1021.26 1020.73 1020.18 1019.67 1019.14 1018.62 1018.08 1017.48 1016.80 1016.18 1015.43 1014.60 1013.62 1012.61 1011.69 1010.66 1009.61 1008.54 1007.52 1006.50 1005.58 1004.51 1003.46 1002.35 1001.50 1000.73 1000.40
1028.82 1028.65 1028.44 1028.13 1027.75 1027.26 1026.76 1026.17 1025.64 1025.21 1024.84 1024.34 1023.92 1023.33 1022.77 1022.24 1021.69 1021.13 1020.52 1019.93 1019.37 1018.76 1018.10 1017.53 1016.89 1016.21 1015.39 1014.54 1013.54 1012.52 1011.54 1010.60 1009.61 1008.55 1007.40 1006.47 1005.53 1004.66 1003.73 1002.72 1002.01 1001.35 1000.99
1029.21 1029.06 1028.85 1028.49 1028.10 1027.61 1027.30 1026.77 1026.23 1025.66 1025.38 1024.77 1024.22 1023.68 1023.21 1022.69 1022.15 1021.62 1021.02 1020.35 1019.72 1019.03 1018.32 1017.64 1017.03 1016.35 1015.52 1014.57 1013.58 1012.58 1011.64 1010.55 1009.56 1008.53 1007.76 1006.97 1006.13 1005.09 1004.03 1003.35 1002.79 1002.19 1001.79
Thickness
5399 5396 5390 5384 5380 5377 5374 5373 5373 5373 5375 5376 5379 5387 5396 5403 5407 5423 5447 5474 5505 5532 5564 5580 5587 5591 5591 5594 5595 5596 5597 5599 5602 5607 5608 5607 5611 5614 5612 5610 5614 5611 5611
5385 5381 5376 5372 5370 5369 5367 5362 5360 5359 5360 5362 5368 5374 5380 5384 5393 5404 5422 5447 5477 5508 5542 5568 5574 5577 5580 5584 5589 5592 5597 5598 5595 5596 5597 5596 5601 5605 5604 5603 5606 5607 5607
5376 5370 5367 5363 5362 5360 5358 5354 5350 5350 5349 5352 5357 5363 5368 5370 5378 5391 5406 5426 5456 5482 5518 5534 5552 5566 5567 5575 5578 5580 5584 5588 5587 5586 5590 5587 5594 5594 5592 5594 5596 5599 5601
5367 5363 5360 5358 5357 5354 5352 5348 5345 5345 5345 5345 5348 5353 5358 5362 5367 5379 5392 5410 5432 5460 5483 5497 5518 5526 5534 5548 5552 5559 5569 5578 5579 5580 5583 5581 5586 5584 5585 5587 5588 5592 5594
5358 5354 5353 5352 5350 5348 5347 5344 5341 5340 5341 5342 5342 5343 5347 5355 5360 5369 5380 5394 5416 5439 5456 5467 5489 5496 5506 5515 5527 5537 5551 5558 5565 5571 5576 5568 5569 5567 5577 5581 5586 5584 5584
5350 5346 5346 5344 5343 5342 5342 5341 5339 5337 5336 5337 5339 5338 5337 5343 5350 5361 5371 5382 5398 5415 5438 5449 5465 5470 5481 5492 5501 5517 5526 5538 5547 5552 5560 5558 5564 5566 5569 5574 5573 5567 5573
5343 5341 5339 5338 5337 5336 5336 5336 5336 5335 5333 5332 5334 5334 5335 5337 5341 5351 5359 5369 5384 5399 5415 5431 5448 5456 5466 5473 5485 5497 5508 5512 5517 5525 5533 5538 5545 5550 5556 5561 5564 5567 5572
5336 5334 5333 5331 5331 5330 5331 5330 5330 5331 5330 5329 5329 5329 5329 5331 5333 5337 5349 5358 5372 5383 5398 5413 5425 5429 5451 5460 5467 5482 5491 5498 5503 5508 5514 5518 5524 5528 5532 5539 5547 5555 5553
5327 5326 5326 5325 5324 5325 5325 5323 5325 5326 5328 5326 5326 5325 5325 5326 5328 5333 5340 5349 5357 5371 5388 5401 5411 5427 5431 5455 5464 5467 5479 5483 5482 5494 5500 5506 5514 5517 5520 5527 5534 5541 5545
5318 5318 5317 5318 5317 5318 5319 5319 5319 5320 5323 5324 5324 5323 5322 5322 5323 5329 5335 5342 5353 5366 5367 5381 5398 5408 5439 5431 5442 5455 5461 5469 5472 5484 5493 5500 5504 5506 5515 5519 5526 5534 5532
5309 5309 5310 5310 5310 5311 5312 5313 5314 5315 5317 5319 5320 5319 5321 5322 5321 5322 5327 5335 5341 5350 5367 5382 5393 5405 5425 5419 5425 5433 5437 5448 5458 5472 5482 5487 5494 5498 5504 5509 5516 5521 5528
5299 5299 5299 5300 5301 5303 5304 5306 5307 5308 5309 5311 5312 5311 5313 5319 5325 5330 5332 5334 5337 5340 5345 5355 5367 5382 5386 5385 5399 5416 5424 5438 5448 5456 5463 5473 5478 5481 5489 5496 5501 5510 5519
5289 5288 5288 5290 5291 5293 5294 5296 5298 5299 5300 5302 5300 5300 5302 5306 5310 5317 5320 5319 5324 5330 5337 5346 5355 5365 5369 5377 5386 5396 5408 5421 5428 5437 5444 5452 5456 5467 5475 5485 5491 5501 5510
5278 5275 5276 5277 5280 5280 5281 5284 5285 5289 5292 5294 5290 5291 5294 5298 5299 5302 5308 5317 5326 5328 5329 5330 5337 5343 5351 5364 5374 5382 5394 5400 5407 5414 5425 5436 5445 5453 5461 5471 5479 5489 5497
5269 5266 5265 5265 5265 5265 5268 5268 5271 5273 5279 5282 5282 5282 5286 5289 5293 5298 5301 5303 5310 5311 5315 5321 5325 5331 5339 5345 5352 5365 5374 5382 5390 5400 5411 5421 5426 5434 5443 5453 5464 5474 5483
5257 5255 5253 5253 5252 5251 5252 5253 5258 5261 5264 5267 5270 5272 5275 5280 5284 5287 5289 5290 5293 5296 5302 5306 5310 5316 5322 5331 5339 5345 5354 5363 5374 5386 5394 5400 5406 5414 5425 5436 5446 5459 5468
5242 5240 5239 5238 5236 5237 5235 5235 5238 5241 5245 5248 5252 5256 5261 5266 5271 5275 5278 5280 5284 5288 5288 5289 5293 5299 5305 5313 5321 5329 5336 5346 5356 5362 5368 5380 5388 5398 5407 5418 5429 5442 5452
5226 5224 5221 5217 5215 5215 5214 5214 5216 5213 5215 5222 5230 5235 5240 5246 5250 5254 5259 5266 5271 5275 5274 5277 5281 5285 5290 5296 5302 5309 5319 5330 5336 5344 5353 5364 5372 5380 5391 5401 5412 5421 5431
5213 5210 5203 5194 5188 5185 5185 5188 5192 5188 5189 5192 5199 5209 5214 5222 5228 5232 5236 5237 5241 5248 5254 5259 5264 5270 5275 5281 5286 5292 5299 5307 5316 5325 5338 5349 5357 5368 5378 5385 5393 5403 5413
5200 5192 5180 5170 5163 5158 5157 5158 5163 5162 5162 5167 5173 5180 5187 5194 5201 5206 5212 5218 5223 5228 5231 5236 5243 5250 5257 5264 5272 5280 5289 5297 5305 5313 5322 5332 5339 5350 5361 5369 5378 5389 5398
5186 5174 5160 5149 5142 5137 5136 5136 5138 5140 5138 5138 5146 5152 5159 5162 5168 5176 5186 5194 5201 5208 5215 5222 5228 5234 5241 5248 5256 5263 5270 5278 5286 5294 5302 5310 5318 5330 5340 5351 5362 5372 5383
5170 5155 5143 5132 5126 5121 5120 5119 5120 5120 5120 5117 5122 5129 5135 5141 5147 5155 5162 5169 5178 5186 5192 5199 5208 5216 5224 5232 5241 5248 5255 5261 5267 5274 5282 5289 5298 5307 5319 5331 5343 5354 5365
5153 5137 5126 5118 5111 5108 5106 5104 5103 5103 5101 5101 5103 5106 5112 5119 5125 5133 5141 5149 5156 5164 5172 5180 5188 5197 5205 5212 5220 5228 5236 5244 5251 5258 5266 5274 5283 5292 5301 5312 5322 5330 5340
5139 5124 5114 5105 5099 5095 5092 5090 5089 5087 5087 5084 5083 5087 5091 5097 5104 5112 5120 5129 5137 5145 5153 5161 5169 5177 5185 5194 5203 5212 5219 5228 5235 5243 5250 5258 5266 5276 5285 5295 5303 5311 5317
5126 5112 5100 5093 5087 5084 5079 5078 5076 5075 5072 5071 5071 5072 5075 5079 5084 5091 5100 5109 5117 5126 5136 5144 5153 5161 5170 5179 5188 5197 5206 5214 5221 5228 5236 5243 5251 5258 5267 5277 5284 5292 5297
5118 5104 5092 5084 5078 5075 5071 5067 5065 5065 5061 5060 5060 5061 5061 5064 5068 5073 5080 5089 5098 5108 5117 5126 5135 5144 5154 5164 5173 5182 5191 5200 5208 5215 5220 5225 5230 5239 5250 5257 5262 5268 5273